Regional Weather Roundup
Issued by NWS

Home | Current Version | Previous Version | Text Only | Print | Product List | Glossary Off
Versions: 1 2 3 4 5 6 7 8 9 10 11 12 13 14 15 16 17 18 19 20 21 22 23 24 25 26 27 28 29 30 31 32 33 34 35 36 37 38 39 40 41 42 43 44 45 46 47 48 49 50

000
ASUS43 KOAX 172110
RWRNE

WEATHER ROUNDUP FOR NEBRASKA
NATIONAL WEATHER SERVICE OMAHA NE
400 PM CDT THU APR 17 2014

NOTES: SATELLITE DATA IS BEING USED TO AUGMENT CLOUD COVER ABOVE
       12000 FEET.
       "FAIR" INDICATES FEW OR NO CLOUDS BELOW 12,000 FEET WITH NO
       SIGNIFICANT WEATHER AND/OR OBSTRUCTIONS TO VISIBILITY.

  * THESE STATIONS DO NOT REPORT WEATHER SUCH AS RAIN...SNOW OR FOG.

NEZ001>004-019>022-054>056-172200-
NEBRASKA PANHANDLE

CITY           SKY/WX    TMP DP  RH WIND       PRES   REMARKS
SCOTTSBLUFF    SUNNY     57  37  47 SE16G24   30.04F
ALLIANCE       PTSUNNY   47  35  63 S15G25    30.08F
CHADRON        MOSUNNY   53  38  56 S15G21    30.05F
KIMBALL        SUNNY     56  32  40 S9        30.03F
SIDNEY         SUNNY     55  36  48 SE17G24   30.08F
$$

NEZ057>060-069>072-079>082-172200-
SOUTHWEST NEBRASKA

CITY           SKY/WX    TMP DP  RH WIND       PRES   REMARKS
NORTH PLATTE   SUNNY     52  31  44 S14G21    30.18F
IMPERIAL       CLOUDY    52  35  52 S16G24    30.16F
LEXINGTON      SUNNY     50  31  48 S6        30.21F
MCCOOK         SUNNY     53  33  46 SE10      30.20F
OGALLALA       MOSUNNY   52  34  50 S15G21    30.14F
$$

NEZ005>010-023>029-035>040-094-172200-
NORTH CENTRAL NEBRASKA

CITY           SKY/WX    TMP DP  RH WIND       PRES   REMARKS
VALENTINE      CLOUDY    48  23  37 S16G22    30.17F
AINSWORTH      CLOUDY    50  23  34 SE15      30.18F
BROKEN BOW     PTSUNNY   49  24  37 S9        30.20F
O`NEILL        PTSUNNY   49  17  27 S7        30.24F
ORD            PTSUNNY   50  24  36 VRB6      30.21F
THEDFORD       SUNNY     53  22  29 S10G21    30.17F
$$

NEZ041-046>049-061>064-073>077-083>087-172200-
SOUTH CENTRAL NEBRASKA

CITY           SKY/WX    TMP DP  RH WIND       PRES   REMARKS
GRAND ISLAND   SUNNY     52  25  35 SW8       30.24F
AURORA         SUNNY     53  24  32 SE6       30.24F
HASTINGS       SUNNY     52  27  38 VRB3      30.23F
HEBRON         SUNNY     53  27  36 N6        30.25F
HOLDREGE       SUNNY     51  29  42 S3        30.22F
KEARNEY *      SUNNY     52  28  40 SW9       30.23F
YORK           SUNNY     54  25  32 CALM      30.24F
$$

NEZ011>018-030>034-042>045-172200-
NORTHEAST NEBRASKA

CITY           SKY/WX    TMP DP  RH WIND       PRES   REMARKS
NORFOLK        MOSUNNY   51  21  30 VRB3      30.24F
ALBION         SUNNY     51  20  30 S7        30.24F
BLAIR          SUNNY     51  24  34 NW5       30.25F
COLUMBUS *     SUNNY     54  27  35 SW3       30.26F
FREMONT        SUNNY     52  23  31 E5        30.26F
TEKAMAH        SUNNY     55  22  27 NW7       30.26F
$$

NEZ050>053-065>068-078-088>093-172200-
SOUTHEAST NEBRASKA

CITY           SKY/WX    TMP DP  RH WIND       PRES   REMARKS
LINCOLN        SUNNY     57  25  29 MISG      30.27F
OMAHA EPPLEY   MOSUNNY   53  25  33 N5        30.26F
BEATRICE       SUNNY     53  27  36 CALM      30.25F
FALLS CITY     SUNNY     53  29  39 VRB3      30.26F
NEBRASKA CITY  SUNNY     52  28  39 NE5       30.26F
PLATTSMOUTH    SUNNY     54  23  30 NE6       30.26F
$$

NEZ044-045-051>053-067-172200-
OMAHA AREA

CITY           SKY/WX    TMP DP  RH WIND       PRES   REMARKS
OMAHA EPPLEY   MOSUNNY   53  25  33 N5        30.26F
BLAIR          SUNNY     51  24  34 NW5       30.25F
FREMONT        SUNNY     52  23  31 E5        30.26F
MILLARD        SUNNY     51  25  37 CALM      30.26F
OFFUTT AFB     SUNNY     53  27  37 VRB5      30.26F
PLATTSMOUTH    SUNNY     54  23  30 NE6       30.26F
WAHOO          FAIR      53  20  27 CALM      30.25F
$$



USA.gov is the U.S. government's official web portal to all federal, state and local government web resources and services.